Mora, MN

4:04 AM CST on January 20, 2017 (GMT -0600)
Mora Municipal

Weather History for KJMR - November, 2012

Change the Weather History Date:

Monday, November 19, 2012

  Actual Average Record
Temperature  
Mean Temperature 42 °F -  
Max Temperature 53 °F 37 °F 60 °F (1941)
Min Temperature 32 °F 20 °F -10 °F (1932)
Degree Days  
Heating Degree Days 22    
Moisture  
Dew Point 33 °F    
Average Humidity 71    
Maximum Humidity 93    
Minimum Humidity 51    
Precipitation  
Precipitation 0.00 in - - ()
Sea Level Pressure  
Sea Level Pressure 30.05 in    
Wind  
Wind Speed 3 mph (SSE)    
Max Wind Speed 9 mph    
Max Gust Speed -    
Visibility 10 miles    
Events      
Averages and records for this station are not official NWS values.
T = Trace of Precipitation, MM = Missing Value Source: NWS Daily Summary

Daily Weather History Graph

Daily Weather History Graph

Search for Another Location

Airport or City:

Trip Planner

Search our weather history database for the weather conditions in past years. The results will help you decide how hot, cold, wet, or windy it might be!

Date:

Astronomy

Nov. 19, 2012 Rise Set
Actual Time 7:19 AM CST 4:37 PM CST
Civil Twilight 6:46 AM CST 5:10 PM CST
Nautical Twilight 6:10 AM CST 5:46 PM CST
Astronomical Twilight 5:34 AM CST 6:22 PM CST
Moon 12:15 PM CST (11/19) 11:13 PM CST (11/19)
Length of Visible Light 10h 23m
Length of Day
9h 17m
Waxing Crescent, 41% of the Moon is Illuminated
Nov 19
Waxing Crescent
Nov 20
First Quarter
Nov 28
Full
Dec 6
Last Quarter
Dec 13
New

Hourly Weather History & Observations

Time (CST) Temp. Windchill Dew Point Humidity Pressure Visibility Wind Dir Wind Speed Gust Speed Precip Events Conditions
12:01 AM 44.6 °F 42.2 °F 32.0 °F 61% 30.09 in 10.0 mi SSE 4.6 mph - N/A   Clear
12:21 AM 44.6 °F 42.2 °F 32.0 °F 61% 30.09 in 10.0 mi SSE 4.6 mph - N/A   Clear
12:41 AM 44.6 °F 42.2 °F 32.0 °F 61% 30.08 in 10.0 mi SSE 4.6 mph - N/A   Clear
1:01 AM 44.6 °F 43.1 °F 32.0 °F 61% 30.09 in 10.0 mi SSE 3.5 mph - N/A   Clear
1:21 AM 44.6 °F 42.2 °F 33.8 °F 66% 30.08 in 10.0 mi SSE 4.6 mph - N/A   Mostly Cloudy
1:41 AM 44.6 °F 43.1 °F 32.0 °F 61% 30.08 in 10.0 mi SSE 3.5 mph - N/A   Overcast
2:01 AM 44.6 °F 41.4 °F 32.0 °F 61% 30.07 in 10.0 mi SSE 5.8 mph - N/A   Overcast
2:21 AM 44.6 °F 43.1 °F 32.0 °F 61% 30.07 in 10.0 mi SSE 3.5 mph - N/A   Mostly Cloudy
2:41 AM 44.6 °F 42.2 °F 32.0 °F 61% 30.07 in 10.0 mi SE 4.6 mph - N/A   Mostly Cloudy
3:01 AM 44.6 °F 42.2 °F 32.0 °F 61% 30.06 in 10.0 mi SSE 4.6 mph - N/A   Mostly Cloudy
3:21 AM 42.8 °F 41.1 °F 32.0 °F 66% 30.06 in 10.0 mi SSE 3.5 mph - N/A   Clear
3:41 AM 41.0 °F - 32.0 °F 70% 30.06 in 10.0 mi Calm Calm - N/A   Clear
4:01 AM 37.4 °F - 30.2 °F 75% 30.06 in 10.0 mi Calm Calm - N/A   Clear
4:21 AM 37.4 °F - 30.2 °F 75% 30.05 in 10.0 mi Calm Calm - N/A   Clear
4:41 AM 35.6 °F - 30.2 °F 81% 30.05 in 10.0 mi Calm Calm - N/A   Clear
5:01 AM 37.4 °F 34.9 °F 30.2 °F 75% 30.04 in 10.0 mi SE 3.5 mph - N/A   Scattered Clouds
5:21 AM 33.8 °F - 28.4 °F 81% 30.05 in 10.0 mi Calm Calm - N/A   Mostly Cloudy
5:41 AM 35.6 °F - 30.2 °F 81% 30.05 in 10.0 mi Calm Calm - N/A   Mostly Cloudy
6:01 AM 37.4 °F 34.9 °F 32.0 °F 81% 30.04 in 10.0 mi SSE 3.5 mph - N/A   Mostly Cloudy
6:21 AM 41.0 °F 39.0 °F 32.0 °F 70% 30.04 in 10.0 mi SE 3.5 mph - N/A   Mostly Cloudy
6:41 AM 42.8 °F - 32.0 °F 66% 30.04 in 10.0 mi Calm Calm - N/A   Overcast
7:01 AM 42.8 °F - 32.0 °F 66% 30.05 in 10.0 mi Calm Calm - N/A   Overcast
7:41 AM 35.6 °F - 30.2 °F 81% 30.06 in 10.0 mi Calm Calm - N/A   Clear
8:01 AM 33.8 °F - 30.2 °F 87% 30.06 in 10.0 mi Calm Calm - N/A   Mostly Cloudy
8:21 AM 35.6 °F - 32.0 °F 87% 30.05 in 10.0 mi Calm Calm - N/A   Overcast
8:41 AM 37.4 °F - 32.0 °F 81% 30.05 in 10.0 mi Calm Calm - N/A   Overcast
9:01 AM 42.8 °F 41.1 °F 33.8 °F 70% 30.05 in 10.0 mi SE 3.5 mph - N/A   Overcast
9:20 AM 44.6 °F 41.4 °F 33.8 °F 66% 30.05 in 10.0 mi SSE 5.8 mph - N/A   Overcast
9:41 AM 46.4 °F 43.5 °F 33.8 °F 62% 30.05 in 10.0 mi South 5.8 mph - N/A   Overcast
10:01 AM 46.4 °F 43.5 °F 33.8 °F 62% 30.05 in 10.0 mi South 5.8 mph - N/A   Overcast
10:21 AM 48.2 °F - 33.8 °F 58% 30.05 in 10.0 mi South 8.1 mph - N/A   Overcast
10:41 AM 48.2 °F - 33.8 °F 58% 30.04 in 10.0 mi South 8.1 mph - N/A   Overcast
11:01 AM 50.0 °F - 35.6 °F 58% 30.04 in 10.0 mi South 9.2 mph - N/A   Overcast
11:21 AM 50.0 °F - 35.6 °F 58% 30.04 in 10.0 mi South 8.1 mph - N/A   Overcast
11:41 AM 50.0 °F - 35.6 °F 58% 30.03 in 10.0 mi South 8.1 mph - N/A   Overcast
12:01 PM 50.0 °F - 35.6 °F 58% 30.03 in 10.0 mi South 8.1 mph - N/A   Overcast
12:21 PM 50.0 °F - 35.6 °F 58% 30.04 in 10.0 mi SSW 5.8 mph - N/A   Overcast
12:41 PM 50.0 °F - 35.6 °F 58% 30.03 in 10.0 mi South 6.9 mph - N/A   Overcast
1:01 PM 50.0 °F - 35.6 °F 58% 30.03 in 10.0 mi South 3.5 mph - N/A   Overcast
1:21 PM 53.6 °F - 35.6 °F 51% 30.02 in 10.0 mi South 4.6 mph - N/A   Overcast
1:41 PM 53.6 °F - 35.6 °F 51% 30.03 in 10.0 mi South 4.6 mph - N/A   Overcast
2:01 PM 53.6 °F - 35.6 °F 51% 30.03 in 10.0 mi SSE 3.5 mph - N/A   Overcast
2:21 PM 53.6 °F - 35.6 °F 51% 30.02 in 10.0 mi SSE 5.8 mph - N/A   Overcast
2:41 PM 53.6 °F - 35.6 °F 51% 30.02 in 10.0 mi SSE 4.6 mph - N/A   Mostly Cloudy
3:01 PM 53.6 °F - 35.6 °F 51% 30.02 in 10.0 mi SSE 3.5 mph - N/A   Clear
3:21 PM 53.6 °F - 35.6 °F 51% 30.02 in 10.0 mi SE 4.6 mph - N/A   Clear
3:41 PM 53.6 °F - 35.6 °F 51% 30.02 in 10.0 mi SSE 4.6 mph - N/A   Clear
4:01 PM 53.6 °F - 35.6 °F 51% 30.02 in 10.0 mi Calm Calm - N/A   Clear
4:21 PM 50.0 °F - 35.6 °F 58% 30.03 in 10.0 mi Calm Calm - N/A   Clear
4:41 PM 48.2 °F - 35.6 °F 62% 30.03 in 10.0 mi Calm Calm - N/A   Clear
5:01 PM 44.6 °F - 35.6 °F 71% 30.04 in 10.0 mi Calm Calm - N/A   Clear
5:21 PM 42.8 °F - 33.8 °F 70% 30.04 in 10.0 mi Calm Calm - N/A   Clear
5:41 PM 37.4 °F - 32.0 °F 81% 30.04 in 10.0 mi Calm Calm - N/A   Clear
6:01 PM 35.6 °F - 32.0 °F 87% 30.05 in 10.0 mi Calm Calm - N/A   Clear
6:21 PM 35.6 °F - 32.0 °F 87% 30.05 in 10.0 mi Calm Calm - N/A   Clear
6:41 PM 35.6 °F - 32.0 °F 87% 30.06 in 10.0 mi Calm Calm - N/A   Clear
7:01 PM 33.8 °F - 32.0 °F 93% 30.06 in 10.0 mi Calm Calm - N/A   Clear
7:21 PM 33.8 °F - 32.0 °F 93% 30.06 in 10.0 mi Calm Calm - N/A   Clear
7:41 PM 33.8 °F - 30.2 °F 87% 30.06 in 10.0 mi Calm Calm - N/A   Clear
8:01 PM 33.8 °F - 32.0 °F 93% 30.06 in 10.0 mi Calm Calm - N/A   Clear
8:21 PM 33.8 °F - 32.0 °F 93% 30.06 in 10.0 mi Calm Calm - N/A   Clear
8:41 PM 32.0 °F - 30.2 °F 93% 30.05 in 10.0 mi Calm Calm - N/A   Clear
9:01 PM 32.0 °F - 30.2 °F 93% 30.06 in 10.0 mi Calm Calm - N/A   Clear
9:21 PM 32.0 °F - 30.2 °F 93% 30.05 in 7.0 mi Calm Calm - N/A   Clear
9:41 PM 32.0 °F - 30.2 °F 93% 30.06 in 7.0 mi Calm Calm - N/A   Clear
10:01 PM 32.0 °F - 30.2 °F 93% 30.07 in 5.0 mi Calm Calm - N/A   Clear
10:21 PM 32.0 °F - 30.2 °F 93% 30.07 in 5.0 mi Calm Calm - N/A   Clear
10:41 PM 32.0 °F 26.4 °F 30.2 °F 93% 30.07 in 10.0 mi North 5.8 mph - N/A   Clear
11:01 PM 35.6 °F 29.9 °F 33.8 °F 93% 30.08 in 10.0 mi NNW 6.9 mph - N/A   Clear
11:21 PM 35.6 °F 31.7 °F 33.8 °F 93% 30.08 in 10.0 mi NNW 4.6 mph - N/A   Clear
11:41 PM 35.6 °F 29.9 °F 33.8 °F 93% 30.08 in 10.0 mi NW 6.9 mph - N/A   Scattered Clouds